C2012 KMOB-KECG

Flight info

Callsign C2012
Flight time N/A
Altitude 26000
Route KMOB DCT ACMES Q22 CATLN Q64 GUILD DCT KECG
Aircraft C30J/M-VGD/C

Departure

Time 2026-04-29 00:09
Airport Mobile Regional Airport (KMOB)

Arrival

Time N/A
Airport Elizabeth City Regional Airport & Coast Guard Air Station (KECG)
Time Latitude Longitude Altitude Speed Heading
2026-04-28 23:48 30.69398 -88.24297 221 ft 0 kts 358°
2026-04-29 00:04 30.69399 -88.24297 221 ft 1 kts 358°
2026-04-29 00:04 30.69427 -88.24306 221 ft 5 kts 332°
2026-04-29 00:04 30.69439 -88.24319 222 ft 1 kts 302°
2026-04-29 00:04 30.69441 -88.24325 222 ft 9 kts 292°
2026-04-29 00:05 30.69455 -88.24437 222 ft 7 kts 280°
2026-04-29 00:05 30.69469 -88.24515 222 ft 13 kts 268°
2026-04-29 00:05 30.69452 -88.24625 222 ft 15 kts 258°
2026-04-29 00:05 30.69459 -88.24739 222 ft 12 kts 303°
2026-04-29 00:06 30.69520 -88.24806 221 ft 0 kts 317°
2026-04-29 00:06 30.69561 -88.24847 221 ft 16 kts 323°
2026-04-29 00:06 30.69647 -88.24920 219 ft 14 kts 324°
2026-04-29 00:07 30.69718 -88.24983 218 ft 11 kts 321°
2026-04-29 00:07 30.69768 -88.25030 219 ft 7 kts 320°
2026-04-29 00:07 30.69826 -88.25082 220 ft 16 kts 327°
2026-04-29 00:07 30.69873 -88.25117 219 ft 0 kts 327°
2026-04-29 00:08 30.69931 -88.25163 219 ft 19 kts 323°
2026-04-29 00:08 30.70115 -88.25328 223 ft 34 kts 321°
2026-04-29 00:08 30.70206 -88.25406 223 ft 0 kts 339°
2026-04-29 00:08 30.70212 -88.25405 223 ft 1 kts 26°
2026-04-29 00:09 30.70168 -88.25349 225 ft 41 kts 145°
2026-04-29 00:09 30.69669 -88.24932 267 ft 125 kts 146°
2026-04-29 00:09 30.68852 -88.24256 676 ft 160 kts 145°
2026-04-29 00:09 30.67884 -88.23468 1301 ft 178 kts 146°
2026-04-29 00:10 30.66852 -88.22565 1931 ft 191 kts 149°
2026-04-29 00:10 30.65588 -88.22202 2698 ft 197 kts 186°
2026-04-29 00:10 30.64377 -88.22987 3390 ft 211 kts 225°
2026-04-29 00:10 30.63592 -88.24429 4136 ft 220 kts 245°
2026-04-29 00:11 30.63445 -88.26225 4875 ft 232 kts 277°
2026-04-29 00:11 30.64176 -88.27908 5561 ft 243 kts 310°
2026-04-29 00:11 30.67228 -88.29710 6900 ft 247 kts 341°
2026-04-29 00:12 30.68878 -88.30269 7531 ft 244 kts 342°
2026-04-29 00:12 30.70531 -88.30780 8121 ft 245 kts 341°
2026-04-29 00:12 30.72188 -88.31271 8687 ft 245 kts 341°
2026-04-29 00:12 30.73822 -88.31744 9214 ft 245 kts 341°
2026-04-29 00:13 30.75480 -88.32218 9727 ft 245 kts 341°
2026-04-29 00:13 30.77135 -88.32687 10190 ft 245 kts 340°
2026-04-29 00:13 30.78803 -88.33159 10582 ft 247 kts 340°
2026-04-29 00:13 30.80478 -88.33630 10953 ft 248 kts 340°
2026-04-29 00:14 30.82164 -88.34104 11284 ft 250 kts 340°
2026-04-29 00:14 30.83811 -88.34567 11594 ft 252 kts 340°
2026-04-29 00:14 30.85522 -88.35048 11872 ft 254 kts 340°
2026-04-29 00:14 30.87242 -88.35531 12113 ft 254 kts 340°
2026-04-29 00:15 30.88960 -88.36013 12318 ft 255 kts 340°
2026-04-29 00:15 30.90725 -88.36329 12478 ft 263 kts 356°
2026-04-29 00:15 30.92505 -88.35679 12594 ft 279 kts 29°
2026-04-29 00:15 30.93854 -88.34019 12654 ft 288 kts 53°
2026-04-29 00:16 30.94885 -88.32012 12730 ft 289 kts 58°
2026-04-29 00:16 30.95870 -88.29960 12775 ft 290 kts 58°
2026-04-29 00:16 30.96857 -88.27912 12759 ft 290 kts 58°
2026-04-29 00:16 30.97852 -88.25860 12704 ft 290 kts 58°
2026-04-29 00:17 30.98848 -88.23816 12622 ft 289 kts 58°
2026-04-29 00:17 30.99842 -88.21777 12496 ft 289 kts 58°
2026-04-29 00:17 31.00820 -88.19773 12336 ft 288 kts 58°
2026-04-29 00:17 31.01808 -88.17749 12139 ft 287 kts 58°
2026-04-29 00:18 31.02792 -88.15730 11917 ft 285 kts 58°
2026-04-29 00:18 31.03769 -88.13727 11638 ft 283 kts 58°
2026-04-29 00:18 31.04739 -88.11737 11339 ft 281 kts 58°
2026-04-29 00:18 31.05705 -88.09754 11010 ft 279 kts 58°
2026-04-29 00:19 31.06656 -88.07798 10651 ft 274 kts 58°
2026-04-29 00:19 31.07595 -88.05868 10268 ft 272 kts 58°
2026-04-29 00:19 31.08524 -88.03959 9843 ft 269 kts 58°
2026-04-29 00:19 31.09441 -88.02072 9363 ft 265 kts 59°
2026-04-29 00:20 31.10343 -88.00218 8861 ft 261 kts 59°
2026-04-29 00:20 31.11231 -87.98390 8294 ft 257 kts 60°
2026-04-29 00:20 31.12045 -87.96712 8569 ft 214 kts 60°
2026-04-29 00:20 31.12762 -87.95233 8855 ft 208 kts 59°
2026-04-29 00:21 31.13505 -87.93706 9408 ft 223 kts 59°
2026-04-29 00:21 31.14274 -87.92125 9867 ft 225 kts 58°
2026-04-29 00:21 31.15048 -87.90527 10283 ft 226 kts 58°
2026-04-29 00:21 31.15846 -87.88884 10739 ft 239 kts 58°
2026-04-29 00:22 31.16665 -87.87194 11447 ft 239 kts 58°
2026-04-29 00:22 31.17484 -87.85500 12142 ft 240 kts 58°
2026-04-29 00:22 31.18311 -87.83791 12802 ft 243 kts 57°
2026-04-29 00:22 31.19151 -87.82053 13432 ft 247 kts 57°
2026-04-29 00:23 31.20004 -87.80288 14034 ft 251 kts 57°
2026-04-29 00:23 31.20869 -87.78498 14593 ft 254 kts 57°
2026-04-29 00:23 31.21733 -87.76708 15139 ft 257 kts 57°
2026-04-29 00:23 31.22614 -87.74881 15698 ft 260 kts 56°
2026-04-29 00:24 31.23516 -87.73013 16185 ft 266 kts 56°
2026-04-29 00:24 31.24429 -87.71119 16724 ft 268 kts 56°
2026-04-29 00:24 31.25344 -87.69218 17296 ft 268 kts 56°
2026-04-29 00:24 31.26251 -87.67331 17818 ft 270 kts 55°
2026-04-29 00:25 31.27178 -87.65405 18331 ft 273 kts 55°
2026-04-29 00:25 31.28115 -87.63458 18772 ft 275 kts 55°
2026-04-29 00:25 31.29053 -87.61505 19207 ft 276 kts 55°
2026-04-29 00:25 31.29985 -87.59566 19636 ft 278 kts 54°
2026-04-29 00:26 31.30952 -87.57609 20055 ft 278 kts 51°
2026-04-29 00:26 31.32007 -87.55717 20478 ft 278 kts 49°
2026-04-29 00:26 31.33096 -87.53845 20876 ft 279 kts 49°
2026-04-29 00:26 31.34192 -87.51967 21271 ft 280 kts 49°
2026-04-29 00:27 31.35292 -87.50077 21664 ft 281 kts 49°
2026-04-29 00:27 31.36392 -87.48182 22052 ft 282 kts 49°
2026-04-29 00:27 31.37498 -87.46275 22423 ft 284 kts 48°
2026-04-29 00:27 31.38609 -87.44357 22783 ft 285 kts 48°
2026-04-29 00:28 31.39723 -87.42432 23137 ft 286 kts 48°
2026-04-29 00:28 31.40842 -87.40496 23476 ft 287 kts 48°
2026-04-29 00:28 31.41962 -87.38558 23777 ft 289 kts 48°
2026-04-29 00:28 31.43086 -87.36611 24056 ft 289 kts 48°
2026-04-29 00:29 31.44215 -87.34656 24326 ft 290 kts 48°
2026-04-29 00:29 31.45342 -87.32701 24600 ft 290 kts 48°
2026-04-29 00:29 31.46474 -87.30740 24832 ft 291 kts 49°
2026-04-29 00:29 31.47611 -87.28767 25083 ft 292 kts 49°
2026-04-29 00:30 31.48746 -87.26796 25336 ft 292 kts 49°
2026-04-29 00:30 31.49497 -87.25492 25522 ft 292 kts 49°
2026-04-29 00:30 31.51006 -87.22871 25800 ft 294 kts 49°
2026-04-29 00:30 31.52155 -87.20872 26021 ft 295 kts 49°
2026-04-29 00:31 31.53312 -87.18862 26103 ft 301 kts 49°
2026-04-29 00:31 31.54494 -87.16809 26124 ft 309 kts 49°
2026-04-29 00:31 31.55718 -87.14680 26117 ft 317 kts 49°
2026-04-29 00:31 31.56962 -87.12510 26117 ft 323 kts 50°
2026-04-29 00:32 31.58230 -87.10298 26116 ft 328 kts 50°
2026-04-29 00:32 31.59510 -87.08063 26115 ft 332 kts 50°
2026-04-29 00:32 31.60804 -87.05801 26117 ft 336 kts 50°
2026-04-29 00:32 31.62096 -87.03543 26114 ft 339 kts 50°
2026-04-29 00:33 31.63413 -87.01239 26113 ft 342 kts 50°
2026-04-29 00:33 31.64739 -86.98920 26110 ft 344 kts 50°
2026-04-29 00:33 31.66076 -86.96578 26110 ft 345 kts 50°
2026-04-29 00:33 31.67416 -86.94232 26103 ft 347 kts 50°
2026-04-29 00:34 31.68761 -86.91874 26106 ft 348 kts 50°
2026-04-29 00:34 31.70112 -86.89504 26104 ft 350 kts 50°
2026-04-29 00:34 31.71468 -86.87125 26102 ft 351 kts 50°
2026-04-29 00:34 31.72826 -86.84740 26102 ft 351 kts 51°
2026-04-29 00:35 31.74182 -86.82358 26101 ft 352 kts 51°
2026-04-29 00:35 31.75545 -86.79962 26098 ft 353 kts 51°
2026-04-29 00:35 31.76900 -86.77577 26110 ft 353 kts 51°
2026-04-29 00:35 31.78266 -86.75173 26095 ft 354 kts 51°
2026-04-29 00:36 31.79632 -86.72766 26094 ft 354 kts 51°
2026-04-29 00:36 31.80999 -86.70358 26094 ft 354 kts 51°
2026-04-29 00:36 31.82367 -86.67944 26094 ft 354 kts 51°
2026-04-29 00:36 31.83736 -86.65528 26088 ft 354 kts 51°
2026-04-29 00:37 31.85085 -86.63146 26096 ft 355 kts 51°
2026-04-29 00:37 31.86443 -86.60745 26096 ft 354 kts 51°
2026-04-29 00:37 31.87812 -86.58326 26093 ft 355 kts 51°
2026-04-29 00:37 31.89172 -86.55920 26094 ft 355 kts 51°
2026-04-29 00:38 31.90538 -86.53501 26090 ft 355 kts 51°
2026-04-29 00:38 31.91899 -86.51090 26101 ft 355 kts 51°
2026-04-29 00:38 31.93268 -86.48663 26096 ft 355 kts 51°
2026-04-29 00:38 31.94632 -86.46242 26095 ft 355 kts 51°
2026-04-29 00:39 31.95996 -86.43822 26105 ft 355 kts 51°
2026-04-29 00:39 31.97363 -86.41393 26105 ft 355 kts 51°
2026-04-29 00:39 31.98725 -86.38973 26105 ft 355 kts 51°
2026-04-29 00:39 32.00095 -86.36537 26106 ft 355 kts 51°
2026-04-29 00:40 32.01454 -86.34118 26106 ft 355 kts 51°
2026-04-29 00:40 32.02816 -86.31693 26140 ft 356 kts 52°
2026-04-29 00:40 32.04167 -86.29286 26117 ft 356 kts 52°
2026-04-29 00:40 32.05533 -86.26850 26132 ft 356 kts 52°
2026-04-29 00:41 32.06904 -86.24404 26119 ft 357 kts 52°
2026-04-29 00:41 32.07833 -86.22745 26126 ft 358 kts 52°
2026-04-29 00:41 32.09648 -86.19503 26125 ft 359 kts 52°
2026-04-29 00:41 32.11024 -86.17044 26131 ft 360 kts 52°
2026-04-29 00:42 32.12401 -86.14579 26125 ft 360 kts 52°
2026-04-29 00:42 32.13776 -86.12117 26128 ft 360 kts 52°
2026-04-29 00:42 32.15153 -86.09652 26135 ft 360 kts 52°
2026-04-29 00:42 32.16528 -86.07186 26125 ft 360 kts 52°
2026-04-29 00:43 32.17902 -86.04721 26118 ft 360 kts 52°
2026-04-29 00:43 32.19278 -86.02253 26123 ft 360 kts 52°
2026-04-29 00:43 32.20651 -85.99786 26115 ft 360 kts 52°
2026-04-29 00:43 32.22026 -85.97315 26124 ft 360 kts 52°
2026-04-29 00:44 32.23398 -85.94848 26114 ft 360 kts 52°
2026-04-29 00:44 32.24764 -85.92389 26120 ft 360 kts 52°
2026-04-29 00:44 32.26112 -85.89962 26121 ft 360 kts 52°
2026-04-29 00:44 32.27485 -85.87488 26125 ft 360 kts 52°
2026-04-29 00:45 32.28854 -85.85020 26122 ft 360 kts 52°
2026-04-29 00:45 32.30232 -85.82534 26120 ft 360 kts 52°
2026-04-29 00:45 32.31598 -85.80067 26123 ft 360 kts 52°
2026-04-29 00:45 32.32972 -85.77585 26123 ft 360 kts 52°
2026-04-29 00:46 32.34346 -85.75100 26113 ft 360 kts 52°
2026-04-29 00:46 32.35716 -85.72623 26122 ft 360 kts 52°
2026-04-29 00:46 32.37089 -85.70138 26123 ft 360 kts 52°
2026-04-29 00:46 32.38461 -85.67652 26125 ft 360 kts 52°
2026-04-29 00:47 32.39830 -85.65170 26124 ft 360 kts 52°
2026-04-29 00:47 32.41194 -85.62697 26126 ft 360 kts 52°
2026-04-29 00:47 32.42563 -85.60212 26127 ft 360 kts 52°
2026-04-29 00:47 32.43925 -85.57738 26125 ft 360 kts 52°
2026-04-29 00:48 32.45297 -85.55245 26127 ft 360 kts 52°
2026-04-29 00:48 32.46648 -85.52786 26128 ft 360 kts 52°
2026-04-29 00:48 32.48019 -85.50291 26130 ft 360 kts 53°
2026-04-29 00:48 32.49388 -85.47798 26127 ft 361 kts 53°
2026-04-29 00:49 32.50757 -85.45304 26131 ft 361 kts 53°
2026-04-29 00:49 32.52126 -85.42807 26130 ft 361 kts 53°
2026-04-29 00:49 32.53484 -85.40330 26140 ft 360 kts 53°
2026-04-29 00:49 32.54851 -85.37833 26132 ft 361 kts 53°
2026-04-29 00:50 32.56219 -85.35333 26129 ft 361 kts 53°
2026-04-29 00:50 32.57120 -85.33686 26129 ft 361 kts 53°
2026-04-29 00:50 32.58487 -85.31185 26123 ft 361 kts 53°
2026-04-29 00:50 32.59844 -85.28703 26122 ft 361 kts 53°
2026-04-29 00:51 32.61207 -85.26205 26120 ft 361 kts 53°
2026-04-29 00:51 32.62573 -85.23701 26119 ft 361 kts 53°
2026-04-29 00:51 32.64369 -85.20407 26120 ft 361 kts 53°
2026-04-29 00:51 32.65289 -85.18718 26120 ft 361 kts 53°
2026-04-29 00:52 32.66651 -85.16217 26121 ft 361 kts 53°
2026-04-29 00:52 32.68015 -85.13711 26121 ft 361 kts 53°
2026-04-29 00:52 32.69373 -85.11212 26122 ft 361 kts 53°
2026-04-29 00:52 32.70735 -85.08706 26136 ft 361 kts 53°
2026-04-29 00:53 32.72096 -85.06200 26135 ft 361 kts 53°
2026-04-29 00:53 32.73451 -85.03702 26136 ft 361 kts 53°
2026-04-29 00:53 32.74810 -85.01196 26137 ft 361 kts 53°
2026-04-29 00:53 32.76164 -84.98698 26140 ft 361 kts 53°
2026-04-29 00:54 32.77522 -84.96191 26142 ft 361 kts 53°
2026-04-29 00:54 32.78881 -84.93678 26150 ft 361 kts 53°
2026-04-29 00:54 32.80232 -84.91180 26142 ft 362 kts 53°
2026-04-29 00:54 32.81594 -84.88661 26138 ft 362 kts 53°
2026-04-29 00:55 32.82956 -84.86139 26140 ft 362 kts 53°
2026-04-29 00:55 32.84303 -84.83643 26140 ft 362 kts 53°
2026-04-29 00:55 32.85665 -84.81118 26141 ft 363 kts 53°
2026-04-29 00:55 32.87022 -84.78600 26140 ft 363 kts 53°
2026-04-29 00:56 32.88388 -84.76063 26142 ft 363 kts 53°
2026-04-29 00:56 32.89750 -84.73534 26141 ft 363 kts 53°
2026-04-29 00:56 32.91110 -84.71006 26138 ft 363 kts 53°
2026-04-29 00:56 32.92461 -84.68492 26142 ft 363 kts 53°
2026-04-29 00:57 32.93818 -84.65964 26140 ft 363 kts 53°
2026-04-29 00:57 32.95170 -84.63446 26139 ft 363 kts 54°
2026-04-29 00:57 32.96533 -84.60906 26140 ft 364 kts 54°
2026-04-29 00:57 32.97894 -84.58368 26139 ft 364 kts 54°
2026-04-29 00:58 32.99259 -84.55819 26141 ft 364 kts 54°
2026-04-29 00:58 33.00605 -84.53304 26141 ft 364 kts 54°
2026-04-29 00:58 33.01984 -84.50727 26136 ft 364 kts 54°
2026-04-29 00:58 33.03328 -84.48211 26136 ft 364 kts 54°
2026-04-29 00:59 33.04684 -84.45673 26145 ft 365 kts 53°
2026-04-29 00:59 33.06051 -84.43114 26139 ft 366 kts 53°
2026-04-29 00:59 33.07417 -84.40552 26139 ft 366 kts 53°
2026-04-29 00:59 33.08788 -84.37980 26140 ft 367 kts 53°
2026-04-29 01:00 33.10158 -84.35409 26151 ft 367 kts 53°
2026-04-29 01:00 33.11521 -84.32848 26156 ft 367 kts 53°
2026-04-29 01:00 33.12888 -84.30278 26166 ft 368 kts 53°
2026-04-29 01:00 33.14261 -84.27696 26174 ft 368 kts 53°
2026-04-29 01:01 33.15630 -84.25119 26176 ft 368 kts 53°
2026-04-29 01:01 33.16999 -84.22541 26175 ft 368 kts 53°
2026-04-29 01:01 33.18369 -84.19957 26175 ft 368 kts 53°
2026-04-29 01:01 33.19737 -84.17377 26175 ft 368 kts 53°
2026-04-29 01:02 33.21089 -84.14825 26175 ft 368 kts 53°
2026-04-29 01:02 33.22459 -84.12236 26174 ft 368 kts 53°
2026-04-29 01:02 33.23827 -84.09650 26173 ft 368 kts 53°
2026-04-29 01:02 33.25194 -84.07064 26170 ft 368 kts 53°
2026-04-29 01:03 33.26560 -84.04477 26167 ft 368 kts 53°
2026-04-29 01:03 33.27921 -84.01900 26164 ft 368 kts 53°
2026-04-29 01:03 33.29286 -83.99311 26160 ft 368 kts 53°
2026-04-29 01:03 33.30652 -83.96720 26156 ft 368 kts 53°
2026-04-29 01:04 33.32016 -83.94130 26148 ft 368 kts 53°
2026-04-29 01:04 33.33364 -83.91570 26152 ft 368 kts 54°
2026-04-29 01:04 33.34728 -83.88977 26150 ft 368 kts 54°
2026-04-29 01:04 33.36090 -83.86386 26151 ft 367 kts 54°
2026-04-29 01:05 33.37449 -83.83799 26153 ft 367 kts 54°
2026-04-29 01:05 33.38808 -83.81210 26152 ft 367 kts 54°
2026-04-29 01:05 33.40167 -83.78618 26151 ft 367 kts 54°
2026-04-29 01:05 33.41520 -83.76036 26150 ft 367 kts 54°
2026-04-29 01:06 33.42877 -83.73446 26149 ft 367 kts 54°
2026-04-29 01:06 33.44232 -83.70857 26149 ft 367 kts 54°
2026-04-29 01:06 33.45580 -83.68280 26148 ft 366 kts 54°
2026-04-29 01:06 33.46938 -83.65681 26149 ft 366 kts 54°
2026-04-29 01:07 33.48291 -83.63090 26149 ft 367 kts 54°
2026-04-29 01:07 33.49642 -83.60502 26145 ft 367 kts 54°
2026-04-29 01:07 33.50993 -83.57910 26145 ft 367 kts 54°
2026-04-29 01:07 33.52344 -83.55318 26161 ft 367 kts 54°
2026-04-29 01:08 33.53699 -83.52717 26142 ft 368 kts 54°
2026-04-29 01:08 33.55054 -83.50112 26141 ft 369 kts 54°
2026-04-29 01:08 33.56411 -83.47502 26142 ft 369 kts 54°
2026-04-29 01:08 33.57767 -83.44892 26135 ft 369 kts 54°
2026-04-29 01:09 33.59125 -83.42278 26146 ft 369 kts 54°
2026-04-29 01:09 33.60482 -83.39662 26149 ft 369 kts 54°
2026-04-29 01:09 33.61836 -83.37051 26150 ft 370 kts 54°
2026-04-29 01:09 33.63196 -83.34425 26153 ft 370 kts 54°
2026-04-29 01:10 33.64535 -83.31841 26151 ft 370 kts 54°
2026-04-29 01:10 33.65892 -83.29217 26153 ft 370 kts 54°
2026-04-29 01:10 33.67266 -83.26559 26155 ft 370 kts 54°
2026-04-29 01:10 33.68609 -83.23961 26155 ft 370 kts 54°
2026-04-29 01:11 33.69965 -83.21333 26159 ft 370 kts 54°
2026-04-29 01:11 33.71323 -83.18702 26156 ft 370 kts 54°
2026-04-29 01:11 33.72680 -83.16069 26156 ft 371 kts 54°
2026-04-29 01:11 33.74036 -83.13437 26152 ft 370 kts 54°
2026-04-29 01:12 33.75390 -83.10807 26140 ft 370 kts 54°
2026-04-29 01:12 33.76747 -83.08169 26157 ft 370 kts 54°
2026-04-29 01:12 33.78100 -83.05538 26143 ft 370 kts 54°
2026-04-29 01:12 33.79456 -83.02898 26145 ft 370 kts 54°
2026-04-29 01:13 33.80351 -83.01154 26144 ft 370 kts 54°
2026-04-29 01:13 33.82161 -82.97625 26147 ft 370 kts 54°
2026-04-29 01:13 33.83495 -82.95022 26147 ft 370 kts 54°
2026-04-29 01:13 33.84844 -82.92389 26149 ft 370 kts 54°
2026-04-29 01:14 33.86197 -82.89745 26148 ft 370 kts 54°
2026-04-29 01:14 33.87544 -82.87102 26148 ft 371 kts 54°
2026-04-29 01:14 33.88856 -82.84429 26147 ft 371 kts 55°
2026-04-29 01:14 33.90195 -82.81781 26146 ft 370 kts 53°
2026-04-29 01:15 33.91565 -82.79152 26148 ft 370 kts 53°
2026-04-29 01:15 33.92944 -82.76537 26144 ft 370 kts 53°
2026-04-29 01:15 33.94327 -82.73927 26146 ft 369 kts 53°
2026-04-29 01:15 33.95711 -82.71319 26145 ft 369 kts 53°
2026-04-29 01:16 33.97088 -82.68722 26145 ft 369 kts 53°
2026-04-29 01:16 33.98469 -82.66118 26144 ft 369 kts 53°
2026-04-29 01:16 33.99849 -82.63511 26172 ft 369 kts 53°
2026-04-29 01:16 34.01230 -82.60902 26148 ft 369 kts 53°
2026-04-29 01:17 34.02609 -82.58294 26139 ft 369 kts 53°
2026-04-29 01:17 34.03526 -82.56559 26140 ft 369 kts 53°